Showing default

HULIANWANG DIGUI-16, 62976

Orbit data source: Space-Track

HULIANWANG DIGUI-16, 62976 is a payload satellite owned by Zhongguo Xingwang (CN) in LEO that was launched on Tue, 11 Feb 2025 UTC via a CHANG ZHENG 8A launch vehicle from the Wenchang Satellite Launch Center (WSC). Payload-class satellites include a variety of spacecraft equipped with specific instruments for various scientific and technological missions. These include communications satellites like Starlink; space stations such as the ISS; scientific satellites like the Hubble; Earth observation satellites from companies like Planet Labs, Umbra, and HawkEye 360; GPS; miniature CubeSats for education and research; and military/defense satellites.

Loading next visibility...
Identifier
62976, 2025-030F
Orbit
LEO
Country
Flag of CNCN / PRC
Related business
Manufacturer
CAST
Mission
Operational Civil Communications
Bus & Motor
GUOWANG C, Unknown motor
Mass
~800 kg wet, ~800 kg dry
Launch date (UTC)
2025-02-11 (10 months ago)
Launch vehicle
CHANG ZHENG 8A
Launch site
Wenchang Satellite Launch Center (WSC)
Object type
Payload
Rocket body
Debris
Shape & HBR
Box + 2 Pan, 2.1 m
Radar Cross Section
5.935 m², Large (>1 m²)

Expand to show TLE details & history
Last TLE update: 9 hours ago

TLE from 9 hours ago
0 HULIANWANG DIGUI-16
1 62976U 25030F   25342.16309896 -.00000067  00000-0  12285-3 0  9993
2 62976  50.0031 200.7226 0000594   5.1104 354.9774 13.29331216 40452
Epoch: 2025-12-08T03:54Z
TLE epoch observation values (Epoch: 2025-12-08T03:54:51.750Z)
Latitude
-0.00001°
Longitude
64.84089°
Altitude
1,149.348 km
Speed
7.28 km/s
True Right ascension
13h 22m 53s
True Declination
0° 00' 00"
Sunlit
Object was in daylight at epoch
Visualization orbit readout
Latitude
Unknown
Longitude
Unknown
Altitude
Unknown
Speed
Unknown
Apparent Right ascension
Unknown
Apparent Declination
Unknown
Sunlit
N/A
Visualization observer readout
Local Sidereal Time
11:09:57
Azimuth
Unknown
Elevation
Unknown
Doppler factor
Unknown
Orbital elements
Apogee altitude
1,150.439 km
Perigee altitude
1,149.545 km
Semi-major axis
7,528.129 km
Eccentricity
0.00006
Inclination
50.0031°
RAAN
200.7226°
Arg. of periapsis
5.1104°
True anomaly
354.9768°
Mean anomaly
354.9774°
Eccentric anomaly
354.9771°
Mean motion
3.32286 °/min
Orbital period
108.34 mins
BSTAR
0.00012285
Loading maneuver chart data...
Computing Atmospheric mass density...
Loading historical data...
Loading historical data...
Loading historical data...
Loading historical data...
Loading historical data...
Loading historical data...
Loading historical data...

Documentation

Showing up to 5 results
|